Date String (YYYY-MM-DD hh:mm:ss) UTC,Instrument flags,Ambient pressure (hPa),Sample flow (lpm),Bypass flow (lpm),Sample temperature (°C),Ambient temperature (°C),ASC tube jacket temperature (°C),LED temperature (°C),Box temperature (°C),Sample RH (%),Span deviation,Mass concentration (μg/m³),Mass concentration (μg/m³),Mass concentration (μg/m³)
DateTimeUTC,F1_M11,P_M11,Q1_M11,Q2_M11,T1_M11,T2_M11,T3_M11,T4_M11,T5_M11,U1_M11,ZSPAN_M11,X0_M11,X2_M11,X1_M11
2022-02-24 14:00:00,,0820.2,5.01,0.00,22.7,22.9,00.0,31.5,24.5,04.3,0000.0,0008.60,0004.75,0004.33
2022-02-24 14:01:00,,0820.2,4.98,0.00,22.6,22.6,00.0,31.5,24.4,04.3,0000.0,0009.08,0004.77,0004.35
2022-02-24 14:02:00,,0820.3,5.00,0.00,22.6,22.3,00.0,31.5,24.3,04.4,0000.0,0009.03,0004.81,0004.38
2022-02-24 14:03:00,,0820.3,5.01,0.00,22.6,22.0,00.0,31.5,24.3,04.4,0000.0,0009.15,0004.92,0004.43
2022-02-24 14:04:00,,0820.3,5.00,0.00,22.5,21.9,00.0,31.5,24.2,04.4,0000.0,0009.17,0004.96,0004.45
2022-02-24 14:05:00,,0820.4,5.01,0.00,22.4,21.7,00.0,31.5,24.1,04.4,0000.0,0009.24,0005.00,0004.47
2022-02-24 14:06:00,,0820.3,4.99,0.00,22.4,21.6,00.0,31.5,24.0,04.4,0000.0,0009.15,0005.04,0004.51
2022-02-24 14:07:00,,0820.4,5.00,0.00,22.4,21.8,00.0,31.5,24.0,04.4,0000.0,0009.35,0005.09,0004.55
2022-02-24 14:08:00,,0820.4,5.01,0.00,22.5,22.5,00.0,31.5,24.3,04.4,0000.0,0009.29,0005.09,0004.57
2022-02-24 14:09:00,,0820.4,5.00,0.00,22.6,23.2,00.0,31.5,24.5,04.4,0000.0,0009.26,0005.13,0004.60
2022-02-24 14:10:00,,0820.5,5.00,0.00,22.7,23.5,00.0,31.6,24.7,04.4,0000.0,0009.04,0005.18,0004.63
2022-02-24 14:11:00,,0820.4,4.99,0.00,22.8,23.2,00.0,31.6,24.7,04.4,0000.0,0008.88,0005.25,0004.66
2022-02-24 14:12:00,,0820.5,5.01,0.00,22.7,22.8,00.0,31.6,24.6,04.4,0000.0,0008.61,0005.30,0004.70
2022-02-24 14:13:00,,0820.6,4.99,0.00,22.7,22.5,00.0,31.6,24.4,04.4,0000.0,0008.58,0005.31,0004.71
2022-02-24 14:14:00,,0820.6,5.00,0.00,22.6,22.2,00.0,31.6,24.3,04.4,0000.0,0008.53,0005.28,0004.72
2022-02-24 14:15:00,,0820.7,5.01,0.00,22.6,22.0,00.0,31.6,24.3,04.4,0000.0,0008.69,0005.32,0004.73
2022-02-24 14:16:00,,0820.7,5.00,0.00,22.5,21.8,00.0,31.5,24.2,04.5,0000.0,0008.72,0005.33,0004.75
2022-02-24 14:17:00,,0820.6,4.99,0.00,22.5,21.7,00.0,31.5,24.1,04.5,0000.0,0008.75,0005.34,0004.74
2022-02-24 14:18:00,,0820.6,5.00,0.00,22.4,21.6,00.0,31.5,24.0,04.5,0000.0,0008.53,0005.31,0004.73
2022-02-24 14:19:00,,0820.6,5.01,0.00,22.4,22.0,00.0,31.5,24.1,04.5,0000.0,0008.51,0005.30,0004.73
2022-02-24 14:20:00,,0820.7,5.01,0.00,22.6,22.7,00.0,31.5,24.3,04.5,0000.0,0008.55,0005.30,0004.72
2022-02-24 14:21:00,,0820.8,5.00,0.00,22.7,23.4,00.0,31.6,24.6,04.5,0000.0,0008.53,0005.28,0004.69
2022-02-24 14:22:00,,0820.8,5.00,0.00,22.8,23.4,00.0,31.6,24.7,04.5,0000.0,0008.53,0005.23,0004.67
2022-02-24 14:23:00,,0820.7,4.98,0.00,22.8,23.1,00.0,31.6,24.6,04.5,0000.0,0008.47,0005.22,0004.66
2022-02-24 14:24:00,,0820.7,5.01,0.00,22.7,22.7,00.0,31.6,24.5,04.5,0000.0,0008.76,0005.22,0004.65
2022-02-24 14:25:00,,0820.8,5.00,0.00,22.7,22.4,00.0,31.6,24.4,04.5,0000.0,0009.01,0005.29,0004.68
2022-02-24 14:26:00,,0820.8,5.01,0.00,22.6,22.2,00.0,31.6,24.3,04.5,0000.0,0009.41,0005.42,0004.72
2022-02-24 14:27:00,,0821.0,5.01,0.00,22.6,22.0,00.0,31.6,24.2,04.6,0000.0,0010.39,0005.65,0004.79
2022-02-24 14:28:00,,0821.0,4.99,0.00,22.5,21.8,00.0,31.6,24.2,04.6,0000.0,0012.19,0005.75,0004.84
2022-02-24 14:29:00,,0821.0,5.00,0.00,22.5,21.6,00.0,31.5,24.1,04.6,0000.0,0012.26,0005.79,0004.86
2022-02-24 14:30:00,,0821.0,5.01,0.00,22.4,21.6,00.0,31.5,24.1,04.6,0000.0,0012.31,0005.83,0004.89
2022-02-24 14:31:00,,0821.0,5.00,0.00,22.5,22.2,00.0,31.5,24.2,04.5,0000.0,0012.24,0005.84,0004.92
2022-02-24 14:32:00,,0821.0,4.99,0.00,22.6,22.9,00.0,31.6,24.4,04.5,0000.0,0012.30,0005.87,0004.96
2022-02-24 14:33:00,,0821.0,5.00,0.00,22.7,23.2,00.0,31.6,24.6,04.5,0000.0,0012.18,0005.90,0005.00
2022-02-24 14:34:00,,0821.0,5.01,0.00,22.7,22.9,00.0,31.6,24.5,04.4,0000.0,0012.08,0005.91,0005.03
2022-02-24 14:35:00,,0821.0,4.98,0.00,22.7,22.6,00.0,31.6,24.5,04.4,0000.0,0011.97,0005.92,0005.05
2022-02-24 14:36:00,,0821.1,5.00,0.00,22.6,22.3,00.0,31.6,24.4,04.4,-000.3,0011.60,0005.87,0005.05
2022-02-24 14:37:00,,0821.0,4.99,0.00,22.6,22.1,00.0,31.6,24.3,04.4,-000.3,0011.24,0005.75,0005.02
2022-02-24 14:38:00,,0821.0,5.01,0.00,22.5,21.9,00.0,31.6,24.2,04.4,0000.4,0010.36,0005.57,0005.00
2022-02-24 14:39:00,,0821.1,5.01,0.00,22.5,21.7,00.0,31.5,24.1,04.4,0000.6,0008.49,0005.47,0005.00
2022-02-24 14:40:00,,0821.1,5.00,0.00,22.4,21.6,00.0,31.5,24.1,04.4,0001.0,0008.27,0005.48,0005.02
2022-02-24 14:41:00,,0821.1,4.99,0.00,22.4,21.8,00.0,31.5,24.1,04.5,0002.0,0008.44,0005.52,0005.03
2022-02-24 14:42:00,,0821.1,5.01,0.00,22.5,22.5,00.0,31.5,24.2,04.4,0002.4,0008.45,0005.54,0005.05
2022-02-24 14:43:00,,0821.1,5.00,0.00,22.6,23.1,00.0,31.6,24.5,04.4,0001.9,0008.45,0005.55,0005.07
2022-02-24 14:44:00,,0821.1,5.00,0.00,22.7,23.1,00.0,31.6,24.6,04.4,0001.8,0008.51,0005.55,0005.07
2022-02-24 14:45:00,,0821.1,5.00,0.00,22.7,22.8,00.0,31.6,24.5,04.4,0000.9,0008.56,0005.58,0005.08
2022-02-24 14:46:00,,0821.1,4.99,0.00,22.7,22.4,00.0,31.6,24.4,04.4,0000.0,0008.59,0005.61,0005.10
2022-02-24 14:47:00,,0821.1,5.01,0.00,22.6,22.1,00.0,31.5,24.3,04.4,0000.0,0008.63,0005.66,0005.12
2022-02-24 14:48:00,,0821.1,5.01,0.00,22.6,21.8,00.0,31.5,24.2,04.4,0000.0,0008.60,0005.69,0005.15
2022-02-24 14:49:00,,0821.1,4.99,0.00,22.5,21.6,00.0,31.5,24.2,04.5,0000.0,0008.56,0005.66,0005.15
2022-02-24 14:50:00,,0821.1,5.00,0.00,22.4,21.5,00.0,31.5,24.1,04.5,0000.0,0008.55,0005.66,0005.16
2022-02-24 14:51:00,,0821.2,5.00,0.00,22.4,21.6,00.0,31.5,24.1,04.5,0000.2,0008.59,0005.66,0005.15
2022-02-24 14:52:00,,0821.3,5.00,0.00,22.5,22.4,00.0,31.5,24.2,04.5,-000.2,0008.47,0005.64,0005.15
2022-02-24 14:53:00,,0821.3,5.00,0.00,22.6,23.1,00.0,31.6,24.5,04.4,-000.5,0008.52,0005.64,0005.14
2022-02-24 14:54:00,,0821.3,4.99,0.00,22.7,23.2,00.0,31.6,24.6,04.4,-000.2,0008.54,0005.64,0005.14
2022-02-24 14:55:00,,0821.3,5.00,0.00,22.7,22.8,00.0,31.6,24.6,04.4,-000.7,0008.47,0005.64,0005.15
2022-02-24 14:56:00,,0821.4,5.01,0.00,22.7,22.5,00.0,31.6,24.5,04.4,-000.9,0008.43,0005.61,0005.14
2022-02-24 14:57:00,,0821.4,4.99,0.00,22.6,22.1,00.0,31.6,24.4,04.4,0000.1,0008.71,0005.61,0005.15
2022-02-24 14:58:00,,0821.4,5.01,0.00,22.6,21.8,00.0,31.5,24.3,04.4,0000.5,0008.72,0005.59,0005.15
2022-02-24 14:59:00,,0821.3,5.00,0.00,22.5,21.6,00.0,31.5,24.2,04.5,0000.9,0009.33,0005.59,0005.14
